CW9463 Weather Reports


Display with metric or nautical units.
time (UTC)temp
F
wind
direction
speed
MPH
gust
MPH
rain 1hr
in
rain 24hr
in
rain mn
in
humidity
%
barometer
mb
20260504034516 55 173 1.0 3.0 0.00 0.08 0.08 73 1005.7
20260504033015 56 192 0.0 1.0 0.00 0.08 0.08 72 1005.9
20260504031518 56 190 1.0 4.0 0.00 0.08 0.08 72 1006.1
20260504030014 56 189 0.0 3.0 0.00 0.08 0.08 71 1006.1
20260504024514 56 190 0.0 0.0 0.00 0.08 0.08 72 1006.1
20260504023013 56 42 0.0 0.0 0.00 0.08 0.08 70 1006.1
20260504021515 57 196 0.0 0.0 0.00 0.08 0.08 69 1006.0
20260504020012 57 196 0.0 0.0 0.00 0.08 0.08 68 1005.8
20260504014512 58 196 0.0 0.0 0.00 0.08 0.08 68 1005.7
20260504013017 59 196 0.0 2.0 0.00 0.08 0.08 66 1005.5
20260504011511 60 226 0.0 2.0 0.00 0.08 0.08 64 1005.5
20260504010010 61 180 0.0 3.0 0.00 0.08 0.08 64 1005.5
20260504004516 62 227 0.0 2.0 0.00 0.08 0.08 62 1005.5
20260504003009 63 218 0.0 4.0 0.00 0.08 0.08 60 1005.5
20260504001509 64 296 1.0 4.0 0.00 0.08 0.08 58 1005.5
20260504000008 64 216 1.0 3.0 0.00 0.08 0.08 57 1005.5
20260503234509 65 277 0.0 3.0 0.00 0.08 0.08 58 1005.6
20260503233006 65 267 1.0 4.0 0.00 0.08 0.08 56 1005.6
20260503231506 66 230 1.0 4.0 0.00 0.08 0.08 53 1005.7
20260503230004 66 260 1.0 6.0 0.00 0.08 0.08 54 1005.7
20260503224503 66 272 2.0 8.0 0.00 0.08 0.08 53 1005.9
20260503223003 67 250 2.0 10.0 0.00 0.08 0.08 51 1006.0
20260503221501 66 246 3.0 8.0 0.00 0.08 0.08 52 1005.9
20260503220100 67 231 1.0 7.0 0.00 0.08 0.08 52 1006.2
20260503214558 66 283 2.0 5.0 0.00 0.08 0.08 54 1006.2
20260503213102 67 246 1.0 4.0 0.00 0.08 0.08 51 1006.5
20260503211611 65 213 2.0 5.0 0.00 0.08 0.08 49 1006.6
20260503210052 65 232 1.0 4.0 0.00 0.08 0.08 54 1006.9
20260503204550 65 196 2.0 6.0 0.00 0.08 0.08 54 1007.3
20260503203050 66 184 3.0 8.0 0.00 0.08 0.08 50 1007.7
20260503201548 66 161 3.0 9.0 0.00 0.08 0.08 49 1007.7
20260503200055 65 146 4.0 10.0 0.00 0.08 0.08 48 1007.9
20260503194545 65 182 3.0 10.0 0.00 0.08 0.08 50 1008.3
20260503193055 67 22 4.0 9.0 0.00 0.08 0.08 50 1008.4
20260503191543 66 162 4.0 9.0 0.00 0.08 0.08 51 1008.6
20260503190035 64 200 2.0 8.0 0.00 0.08 0.08 59 1008.8
20260503184540 63 170 2.0 8.0 0.00 0.08 0.08 61 1009.0
20260503183027 61 192 3.0 8.0 0.00 0.08 0.08 64 1009.2
20260503181522 59 183 2.0 6.0 0.01 0.08 0.08 71 1009.7
20260503180035 57 173 2.0 7.0 0.01 0.08 0.08 75 1010.2
20260503174517 52 259 2.0 5.0 0.01 0.08 0.08 86 1010.7
20260503173014 48 59 0.0 1.0 0.01 0.08 0.08 89 1011.1
20260503171509 48 190 0.0 2.0 0.01 0.07 0.07 89 1011.9
20260503150106 52 258 2.0 6.0 0.00 0.00 0.00 69 1014.5
20260503081558 41 169 0.0 1.0 0.00 0.00 0.00 74 1015.0
20260503080106 41 159 0.0 0.0 0.00 0.00 0.00 73 1015.1
20260503071600 42 184 0.0 1.0 0.00 0.00 0.00 70 1015.1
20260503054545 43 170 0.0 1.0 0.00 0.00 0.00 68 1016.0
20260503053042 43 185 0.0 0.0 0.00 0.00 0.00 68 1016.0
20260503051540 43 185 0.0 1.0 0.00 0.00 0.00 68 1016.1
20260503050036 44 185 0.0 2.0 0.00 0.00 0.00 67 1016.2
20260503044536 44 185 0.0 2.0 0.00 0.00 0.00 66 1016.2
20260503043035 44 185 1.0 3.0 0.00 0.00 0.00 65 1016.1
20260503041535 44 161 0.0 2.0 0.00 0.00 0.00 66 1016.3
20260503040034 44 122 0.0 2.0 0.00 0.00 0.00 67 1016.4